Gonzales Roger M. Dreyer Memo, TX

8:04 AM CST on December 16, 2019 (GMT -0600)
Gonzales Roger M. Dreyer Memo

Weather History for KT20 - November, 2019

Change the Weather History Date:

Friday, November 15, 2019

  Actual Average (KVCT) Record (KVCT)
Temperature  
Mean Temperature 48 °F -  
Max Temperature 62 °F 72 °F 89 °F (1927)
Min Temperature 34 °F 51 °F 28 °F (1916)
Degree Days  
Heating Degree Days 17    
Moisture  
Dew Point 38 °F    
Average Humidity 76    
Maximum Humidity 100    
Minimum Humidity 39    
Precipitation  
Precipitation 0.00 in - - ()
Sea Level Pressure  
Sea Level Pressure 30.36 in    
Wind  
Wind Speed 3 mph (North)    
Max Wind Speed 8 mph    
Max Gust Speed -    
Visibility 8 miles    
Events      
Averages and records for this station are not official NWS values.
T = Trace of Precipitation, MM = Missing Value Source: NWS Daily Summary

Daily Weather History Graph

Daily Weather History Graph

Search for Another Location

Airport or City:

Astronomy

Nov. 15, 2019 Rise Set
Actual Time 6:53 AM CST 5:34 PM CST
Civil Twilight 6:28 AM CST 5:59 PM CST
Nautical Twilight 5:59 AM CST 6:28 PM CST
Astronomical Twilight 5:31 AM CST 6:56 PM CST
Moon 8:19 PM CST (11/15) 9:44 AM CST (11/15)
Length of Visible Light 11h 31m
Length of Day
10h 40m
Waning Gibbous, 90% of the Moon is Illuminated
Nov 15
Waning Gibbous
Nov 19
Last Quarter
Nov 26
New
Dec 4
First Quarter
Dec 11
Full

Hourly Weather History & Observations

Time (CST) Temp. Windchill Dew Point Humidity Pressure Visibility Wind Dir Wind Speed Gust Speed Precip Events Conditions
12:15 AM 38.8 °F 36.5 °F 38.7 °F 99% 30.39 in 4.0 mi WNW 3.5 mph - N/A   Clear
12:35 AM 38.5 °F 36.1 °F 38.5 °F 100% 30.39 in 3.0 mi WNW 3.5 mph - N/A   Clear
12:55 AM 37.9 °F 35.5 °F 37.9 °F 100% 30.39 in 3.0 mi West 3.5 mph - N/A   Clear
1:15 AM 37.8 °F 35.3 °F 37.8 °F 100% 30.39 in 4.0 mi WNW 3.5 mph - N/A   Clear
1:35 AM 37.4 °F - 37.4 °F 100% 30.39 in 3.0 mi Calm Calm - N/A   Clear
1:55 AM 36.9 °F 34.3 °F 36.9 °F 100% 30.38 in 3.0 mi NNW 3.5 mph - N/A   Clear
2:15 AM 36.5 °F 33.9 °F 36.5 °F 100% 30.38 in 3.0 mi NNW 3.5 mph - N/A   Clear
2:35 AM 36.7 °F - 36.7 °F 100% 30.38 in 3.0 mi Calm Calm - N/A   Clear
2:55 AM 36.7 °F - 36.7 °F 100% 30.39 in 2.0 mi Calm Calm - N/A   Clear
3:15 AM 36.9 °F - 36.9 °F 100% 30.38 in 1.8 mi Calm Calm - N/A   Mist
3:35 AM 36.5 °F - 36.5 °F 100% 30.38 in 1.5 mi Calm Calm - N/A   Mist
3:55 AM 35.8 °F 33.0 °F 35.8 °F 100% 30.39 in 1.0 mi WNW 3.5 mph - N/A   Mist
4:15 AM 35.6 °F - 35.6 °F 100% 30.40 in 1.5 mi Calm Calm - N/A   Mist
4:35 AM 35.2 °F 32.4 °F 35.2 °F 100% 30.39 in 1.8 mi NNW 3.5 mph - N/A   Mist
4:55 AM 35.1 °F 31.0 °F 35.1 °F 100% 30.40 in 2.5 mi WNW 4.6 mph - N/A   Clear
5:15 AM 35.1 °F - 35.1 °F 100% 30.40 in 3.0 mi Calm Calm - N/A   Clear
5:35 AM 35.1 °F - 35.1 °F 100% 30.40 in 4.0 mi Calm Calm - N/A   Clear
5:55 AM 34.9 °F - 34.9 °F 100% 30.40 in 3.0 mi Calm Calm - N/A   Clear
6:15 AM 34.2 °F 31.2 °F 34.2 °F 100% 30.41 in 3.0 mi NW 3.5 mph - N/A   Clear
6:35 AM 34.0 °F - 34.0 °F 100% 30.41 in 4.0 mi Calm Calm - N/A   Clear
6:55 AM 34.0 °F - 34.0 °F 100% 30.42 in 4.0 mi Calm Calm - N/A   Clear
7:15 AM 34.2 °F 30.0 °F 34.2 °F 100% 30.42 in 4.0 mi North 4.6 mph - N/A   Clear
7:35 AM 35.1 °F 32.2 °F 35.1 °F 100% 30.42 in 5.0 mi NNW 3.5 mph - N/A   Clear
7:55 AM 36.9 °F 33.1 °F 36.9 °F 100% 30.43 in 7.0 mi NNW 4.6 mph - N/A   Clear
8:15 AM 39.2 °F 35.9 °F 39.2 °F 100% 30.42 in 7.0 mi North 4.6 mph - N/A   Clear
8:35 AM 41.5 °F 38.6 °F 41.5 °F 100% 30.43 in 10.0 mi North 4.6 mph - N/A   Clear
8:55 AM 44.6 °F 42.2 °F 43.9 °F 97% 30.43 in 10.0 mi North 4.6 mph - N/A   Clear
9:15 AM 46.8 °F - 43.2 °F 87% 30.44 in 10.0 mi North 8.1 mph - N/A   Clear
9:35 AM 49.3 °F - 41.7 °F 75% 30.44 in 10.0 mi NNE 5.8 mph - N/A   Clear
9:55 AM 50.7 °F - 41.5 °F 71% 30.44 in 10.0 mi NNE 3.5 mph - N/A   Clear
10:15 AM 52.0 °F - 41.7 °F 68% 30.44 in 10.0 mi NNE 4.6 mph - N/A   Clear
10:35 AM 53.8 °F - 41.5 °F 63% 30.44 in 10.0 mi NNE 3.5 mph - N/A   Clear
10:55 AM 54.0 °F - 41.2 °F 62% 30.43 in 10.0 mi North 4.6 mph - N/A   Clear
11:15 AM 55.8 °F - 40.5 °F 56% 30.42 in 10.0 mi North 3.5 mph - N/A   Clear
11:35 AM 57.0 °F - 40.1 °F 53% 30.41 in 10.0 mi NNE 3.5 mph - N/A   Clear
11:55 AM 58.3 °F - 39.2 °F 49% 30.40 in 10.0 mi NNE 5.8 mph - N/A   Clear
12:35 PM 59.4 °F - 38.3 °F 46% 30.36 in 10.0 mi North 4.6 mph - N/A   Clear
12:55 PM 60.6 °F - 38.7 °F 44% 30.35 in 10.0 mi North 6.9 mph - N/A   Clear
1:15 PM 60.6 °F - 38.8 °F 45% 30.34 in 10.0 mi North 6.9 mph - N/A   Clear
1:35 PM 61.2 °F - 37.9 °F 42% 30.33 in 10.0 mi North 4.6 mph - N/A   Clear
1:55 PM 61.7 °F - 39.0 °F 43% 30.32 in 10.0 mi WNW 6.9 mph - N/A   Clear
2:15 PM 62.8 °F - 38.8 °F 41% 30.32 in 10.0 mi NNW 3.5 mph - N/A   Clear
2:35 PM 62.1 °F - 38.1 °F 41% 30.32 in 10.0 mi NNW 3.5 mph - N/A   Clear
2:55 PM 62.8 °F - 37.4 °F 39% 30.31 in 10.0 mi North 5.8 mph - N/A   Clear
3:15 PM 62.6 °F - 37.9 °F 40% 30.30 in 10.0 mi Calm Calm - N/A   Clear
3:35 PM 62.6 °F - 37.4 °F 39% 30.30 in 10.0 mi North 4.6 mph - N/A   Clear
3:55 PM 62.6 °F - 37.4 °F 39% 30.30 in 10.0 mi NNW 5.8 mph - N/A   Clear
4:15 PM 61.9 °F - 36.5 °F 39% 30.29 in 10.0 mi NNE 5.8 mph - N/A   Clear
4:35 PM 61.7 °F - 38.1 °F 42% 30.29 in 10.0 mi NNE 3.5 mph - N/A   Clear
4:55 PM 60.8 °F - 37.0 °F 41% 30.29 in 10.0 mi North 4.6 mph - N/A   Clear
5:15 PM 59.2 °F - 37.8 °F 45% 30.29 in 10.0 mi NNE 3.5 mph - N/A   Clear
5:35 PM 57.2 °F - 38.7 °F 50% 30.29 in 10.0 mi Calm Calm - N/A   Clear
5:55 PM 55.6 °F - 38.7 °F 53% 30.28 in 10.0 mi NE 3.5 mph - N/A   Clear
6:15 PM 54.5 °F - 38.3 °F 54% 30.28 in 10.0 mi NE 3.5 mph - N/A   Clear
6:35 PM 53.6 °F - 38.3 °F 56% 30.28 in 10.0 mi NE 3.5 mph - N/A   Clear
6:55 PM 52.7 °F - 38.5 °F 58% 30.29 in 10.0 mi NE 3.5 mph - N/A   Clear
7:15 PM 51.3 °F - 38.8 °F 63% 30.29 in 10.0 mi NE 3.5 mph - N/A   Clear
7:35 PM 52.0 °F - 38.3 °F 60% 30.30 in 10.0 mi NE 3.5 mph - N/A   Clear
7:55 PM 52.2 °F - 37.9 °F 58% 30.30 in 10.0 mi NE 3.5 mph - N/A   Clear
8:15 PM 49.1 °F - 37.2 °F 64% 30.30 in 10.0 mi Calm Calm - N/A   Clear
8:35 PM 45.5 °F - 37.9 °F 75% 30.31 in 10.0 mi Calm Calm - N/A   Clear
8:55 PM 44.6 °F - 39.2 °F 81% 30.31 in 10.0 mi Calm Calm - N/A   Clear
9:15 PM 44.6 °F - 39.6 °F 82% 30.31 in 10.0 mi Calm Calm - N/A   Clear
9:35 PM 42.8 °F - 38.7 °F 85% 30.32 in 10.0 mi Calm Calm - N/A   Clear
9:55 PM 41.4 °F - 38.7 °F 90% 30.32 in 10.0 mi Calm Calm - N/A   Clear
10:15 PM 42.1 °F - 39.9 °F 92% 30.32 in 10.0 mi Calm Calm - N/A   Clear
10:35 PM 42.8 °F - 40.1 °F 90% 30.31 in 10.0 mi Calm Calm - N/A   Clear
10:55 PM 40.3 °F - 37.4 °F 89% 30.31 in 10.0 mi Calm Calm - N/A   Clear
11:15 PM 40.5 °F - 38.7 °F 93% 30.31 in 10.0 mi Calm Calm - N/A   Clear
11:35 PM 41.2 °F - 39.0 °F 92% 30.30 in 10.0 mi Calm Calm - N/A   Clear
11:55 PM 38.7 °F - 37.4 °F 95% 30.30 in 10.0 mi Calm Calm - N/A   Clear